This is the latest recevied weather packets stored in our database for station/object DH1GAP-13. If no packets are shown the sender has not sent any weather packets the latest 1 day(s).
| Time | Temp. | Humidity | Pressure | Rain* | Wind** | Luminosity | Snow |
|---|---|---|---|---|---|---|---|
| 1778001964 | 17.22° C | 57% | 1017.7 hPa | 0 mm | 1.79 m/s, 202° | - | - |
| 1778001904 | 17.22° C | 57% | 1017.5 hPa | 0 mm | 0 m/s | - | - |
| 1778001844 | 17.22° C | 57% | 1017.5 hPa | 0 mm | 0 m/s | - | - |
| 1778001784 | 17.22° C | 57% | 1017.5 hPa | 0 mm | 0 m/s | - | - |
| 1778001724 | 17.22° C | 57% | 1017.5 hPa | 0 mm | 0 m/s | - | - |
| 1778001664 | 17.22° C | 57% | 1017.5 hPa | 0 mm | 4.92 m/s, 202° | - | - |
| 1778001604 | 17.22° C | 57% | 1017.4 hPa | 0 mm | 4.47 m/s, 202° | - | - |
| 1778001544 | 17.22° C | 57% | 1017.4 hPa | 0 mm | 1.79 m/s, 225° | - | - |
| 1778001484 | 17.78° C | 57% | 1017.5 hPa | 0 mm | 2.68 m/s, 225° | - | - |
| 1778001424 | 17.78° C | 57% | 1017.5 hPa | 0 mm | 3.13 m/s, 247° | - | - |
| 1778001364 | 17.78° C | 57% | 1017.4 hPa | 0 mm | 0.89 m/s, 225° | - | - |
| 1778001304 | 17.78° C | 57% | 1017.4 hPa | 0 mm | 4.47 m/s, 225° | - | - |
| 1778001244 | 17.78° C | 57% | 1017.5 hPa | 0 mm | 4.92 m/s, 225° | - | - |
| 1778001184 | 17.78° C | 57% | 1017.5 hPa | 0 mm | 3.13 m/s, 247° | - | - |
| 1778001124 | 17.78° C | 56% | 1017.5 hPa | 0 mm | 4.02 m/s, 225° | - | - |
| 1778001064 | 17.78° C | 56% | 1017.5 hPa | 0 mm | 5.36 m/s, 202° | - | - |
| 1778001004 | 17.78° C | 56% | 1017.5 hPa | 0 mm | 4.92 m/s, 247° | - | - |
| 1778000944 | 17.78° C | 56% | 1017.5 hPa | 0 mm | 0 m/s | - | - |
| 1778000884 | 17.78° C | 56% | 1017.5 hPa | 0 mm | 7.15 m/s, 225° | - | - |
| 1778000824 | 18.33° C | 56% | 1017.5 hPa | 0 mm | 4.92 m/s, 225° | - | - |
| 1778000764 | 18.33° C | 56% | 1017.5 hPa | 0 mm | 4.92 m/s, 247° | - | - |
| 1778000704 | 18.33° C | 55% | 1017.5 hPa | 0 mm | 4.02 m/s, 247° | - | - |
| 1778000644 | 18.33° C | 55% | 1017.4 hPa | 0 mm | 3.13 m/s, 202° | - | - |
| 1778000584 | 18.33° C | 55% | 1017.4 hPa | 0 mm | 0 m/s | - | - |
| 1778000524 | 18.33° C | 55% | 1017.4 hPa | 0 mm | 6.71 m/s, 225° | - | - |
* Rain latest hour (hover to see other rain measurements)
** Current wind speed in m/s (hover to see current wind gust speed)